Regional Weather Roundup
Issued by NWS

Home | Current Version | Previous Version | Text Only | Print | Product List | Glossary Off
Versions: 1 2 3 4 5 6 7 8 9 10 11 12 13 14 15 16 17 18 19 20 21 22 23 24 25 26 27 28 29 30 31 32 33 34 35 36 37 38 39 40 41 42 43 44 45 46 47 48 49 50

000
ASUS43 KOAX 241510
RWRNE

WEATHER ROUNDUP FOR NEBRASKA
NATIONAL WEATHER SERVICE OMAHA NE
1000 AM CDT SUN JUL 24 2016

NOTES: SATELLITE DATA IS BEING USED TO AUGMENT CLOUD COVER ABOVE
       12000 FEET.
       "FAIR" INDICATES FEW OR NO CLOUDS BELOW 12,000 FEET WITH NO
       SIGNIFICANT WEATHER AND/OR OBSTRUCTIONS TO VISIBILITY.

  * THESE STATIONS DO NOT REPORT WEATHER SUCH AS RAIN...SNOW OR FOG.

NEZ001>004-019>022-054>056-241600-
NEBRASKA PANHANDLE

CITY           SKY/WX    TMP DP  RH WIND       PRES   REMARKS
SCOTTSBLUFF    CLOUDY    76  54  46 E14G22    30.13R
ALLIANCE       CLOUDY    69  58  67 NE16      30.14S
CHADRON        CLOUDY    70  50  49 E8        30.17R
KIMBALL        MOSUNNY   70  57  63 SE13G18   30.17R
SIDNEY         LGT RAIN  73  47  39 SE23G30   30.16F
$$

NEZ057>060-069>072-079>082-241600-
SOUTHWEST NEBRASKA

CITY           SKY/WX    TMP DP  RH WIND       PRES   REMARKS
NORTH PLATTE   CLOUDY    75  61  61 NW6       30.14R
IMPERIAL       SUNNY     76  55  48 NE8       30.14R
LEXINGTON      CLOUDY    73  62  68 E6        30.08R
MCCOOK         MOSUNNY   78  61  55 E14       30.06F
OGALLALA       CLOUDY    80  52  38 NE8       30.16R
$$

NEZ005>010-023>029-035>040-094-241600-
NORTH CENTRAL NEBRASKA

CITY           SKY/WX    TMP DP  RH WIND       PRES   REMARKS
VALENTINE      SUNNY     76  51  41 N5        30.12R
AINSWORTH      MOSUNNY   73  58  59 NE7       30.11R
BROKEN BOW     CLOUDY    71  64  78 E6        30.09R
O`NEILL        CLOUDY    75  58  57 NE13      30.06S
ORD            CLOUDY    75  64  68 E8        30.04R
THEDFORD       CLOUDY    74  57  55 N3        30.17R
$$

NEZ041-046>049-061>064-073>077-083>087-241600-
SOUTH CENTRAL NEBRASKA

CITY           SKY/WX    TMP DP  RH WIND       PRES   REMARKS
GRAND ISLAND   CLOUDY    77  63  61 VRB3      30.06R
AURORA         CLOUDY    78  62  58 CALM      30.05R
HASTINGS       CLOUDY    77  63  61 NE8       30.06R
HEBRON         PTSUNNY   80  69  69 NE3       29.99S
HOLDREGE       CLOUDY    75  63  66 E16       30.05S
KEARNEY *      PTSUNNY   79  63  57 E12       30.07S
YORK           CLOUDY    77  66  69 E7        30.03R
$$

NEZ011>018-030>034-042>045-241600-
NORTHEAST NEBRASKA

CITY           SKY/WX    TMP DP  RH WIND       PRES   REMARKS
NORFOLK        MOSUNNY   79  62  56 N9        30.03R
ALBION         CLOUDY    76  63  64 NE6       30.05R
BLAIR          MOSUNNY   80  65  59 NE9       29.97S
FREMONT        MOSUNNY   80  65  61 N3        29.99R
TEKAMAH        MOSUNNY   82  67  60 NW9       29.97R
WAYNE          MOSUNNY   78  66  68 N6        30.02R
$$

NEZ050>053-065>068-078-088>093-241600-
SOUTHEAST NEBRASKA

CITY           SKY/WX    TMP DP  RH WIND       PRES   REMARKS
LINCOLN        CLOUDY    82  69  64 NE6       30.00R
OMAHA EPPLEY   MOSUNNY   84  67  56 N12       29.96R
BEATRICE       CLOUDY    88  62  42 NE8       29.97S
FALLS CITY     MOSUNNY   87  77  72 NW8       29.91S HX  99
NEBRASKA CITY  MOSUNNY   83  77  81 N6        29.96R HX  93
PLATTSMOUTH      N/A     83  69  64 MISG        N/A
$$

NEZ044-045-051>053-067-241600-
OMAHA AREA

CITY           SKY/WX    TMP DP  RH WIND       PRES   REMARKS
OMAHA EPPLEY   MOSUNNY   84  67  56 N12       29.96R
BLAIR          MOSUNNY   80  65  59 NE9       29.97S
FREMONT        MOSUNNY   80  65  61 N3        29.99R
MILLARD        MOSUNNY   85  64  50 CALM      29.96R
OFFUTT AFB     MOSUNNY   84  67  57 NE9       29.96R
PLATTSMOUTH      N/A     83  69  64 MISG        N/A
WAHOO          FAIR      80  68  65 NE9       29.98R
$$




USA.gov is the U.S. government's official web portal to all federal, state and local government web resources and services.